Regional Weather Roundup
Issued by NWS

Home | Current Version | Previous Version | Graphics & Text | Print | Product List | Glossary On
Versions: 1 2 3 4 5 6 7 8 9 10 11 12 13 14 15 16 17 18 19 20 21 22 23 24 25 26 27 28 29 30 31 32 33 34 35 36 37 38 39 40 41 42 43 44 45 46 47 48 49 50
000
ASUS43 KDTX 302301
RWRMI
MICHIGAN HOURLY REGIONAL WEATHER ROUNDUP
NATIONAL WEATHER SERVICE DETROIT/PONTIAC MI
600 PM EST FRI JAN 30 2015

NOTE: "FAIR" INDICATES FEW OR NO CLOUDS BELOW 12,000 FEET WITH NO
SIGNIFICANT WEATHER AND/OR OBSTRUCTION TO VISIBILITY.

MIZ047>049-052>055-059>063-066>070-074>076-081>083-310000-
SOUTHEAST LOWER MICHIGAN

CITY           SKY/WX    TMP DP  RH WIND       PRES   REMARKS
ADRIAN         CLEAR     20   7  57 CALM      30.43F
ALMA           CLEAR     18   8  63 CALM      30.39F
ANN ARBOR      CLEAR     18   5  57 NW5       30.41F WCI  11
BAD AXE        CLEAR     10   0  63 CALM      30.41F
CARO           CLEAR      9   0  66 CALM      30.41F
DETROIT CITY   CLEAR     19   1  45 W3        30.44S
DETROIT        PTCLDY    19   3  49 NW7       30.44S WCI  10
FLINT          CLEAR     16   3  56 W6        30.41F WCI   7
GROSSE ILE     CLEAR     18   1  49 NW3       30.43S
HILLSDALE      CLEAR     19   7  58 CALM      30.38F
HOWELL         CLEAR     18   5  57 CALM      30.40S

CITY           SKY/WX    TMP DP  RH WIND       PRES   REMARKS
JACKSON        CLEAR     18   7  62 CALM      30.40F
LAMBERTVILLE   CLEAR     23   7  50 CALM      30.44S
LANSING        CLEAR     19   7  59 CALM      30.41F
LAPEER         FAIR      13   0  57 CALM      30.41S
MASON          CLEAR     18   7  63 CALM      30.40F
MONROE         CLEAR     19   7  58 NW3       30.42F
MT. CLEMENS    PTCLDY    14   0  53 N5        30.42S WCI   6
PONTIAC        PTCLDY    15   2  56 W6        30.39F WCI   6
PORT HOPE        N/A     10   0  63 SW5       30.40F WCI   2
PORT HURON     CLEAR     10  -2  56 CALM      30.44S
TRI CITIES     CLEAR     18   5  57 W5        30.42S WCI  11
TROY           CLEAR     20   0  43 W5        30.45S WCI  13
SAGINAW HB     CLEAR     19   3  49 CALM      30.41F
$$
MIZ043>046-050>051-056>058-064>065-071>073-077>080-310000-
SOUTHWEST LOWER MICHIGAN

CITY           SKY/WX    TMP DP  RH WIND       PRES   REMARKS
BATTLE CREEK   CLEAR     21   8  57 N3        30.40F
BENTON HARBOR  CLOUDY    23  15  71 W5        30.44F WCI  17
BIG RAPIDS     CLEAR     19   8  64 W7        30.37S WCI   9
COLDWATER      CLEAR     20   8  59 CALM      30.40F
FREMONT        FAIR      18   6  59 W3        30.40S
HOLLAND        CLOUDY    24  13  62 VRB3      30.43F
GRAND RAPIDS   PTCLDY    21   9  59 W8        30.41F WCI  11
IONIA          FAIR      22   9  57 W5        30.39F WCI  15
KALAMAZOO      CLEAR     22  11  62 W7        30.41F WCI  13
LUDINGTON      PTCLDY    20  10  64 CALM      30.42F
MARSHALL       CLEAR     18   7  62 CALM      30.40F
MOUNT PLEASANT CLEAR     18   6  59 CALM      30.39F
MUSKEGON       MOCLDY    21  11  65 NW5       30.43F WCI  15
SOUTH HAVEN    CLOUDY    26  15  65 W5        30.43S WCI  20
$$
MIZ016>042-310000-
NORTHERN LOWER MICHIGAN

CITY           SKY/WX    TMP DP  RH WIND       PRES   REMARKS
ALPENA         CLEAR     10   0  63 N5        30.39F WCI   2
BEAVER ISLAND  CLOUDY    17   8  67 CALM      30.38F
CADILLAC       CLEAR     15   6  67 W6        30.33S WCI   6
CHARLEVOIX     CLOUDY    17  11  78 W3        30.41F
FRANKFORT      MOCLDY    18  10  71 W3        30.41S
GAYLORD        CLOUDY    13   4  67 W7        30.33S WCI   3
GRAYLING       FLURRIES  16   6  67 W3        30.35F
HARBOR SPRINGS CLOUDY    14   6  71 CALM      30.38F
HOUGHTON LAKE  CLOUDY    15   5  64 W5        30.35F WCI   8
MANISTEE       MOCLDY    18   7  62 W3        30.42S
OSCODA         CLEAR     14  -1  50 CALM      30.39S
PELLSTON       CLOUDY    16   6  65 W7        30.38F WCI   6
TRAVERSE CITY  FLURRIES  18   9  68 W5        30.39F WCI  11
$$
MIZ007>008-015-310000-
EASTERN UPPER MICHIGAN

CITY           SKY/WX    TMP DP  RH WIND       PRES   REMARKS
KINROSS        CLOUDY    12   3  67 CALM      30.36S
MACKINAC ISLAN CLOUDY    14   8  77 SW8       30.36F WCI   2
NEWBERRY       CLOUDY    10   7  88 SW8       30.35S WCI  -3
S. S. MARIE    CLOUDY    10   1  67 CALM      30.36F
MUNISING         N/A     15   5  64 CALM      30.35F
$$
MIZ004>006-011>014-085-310000-
CENTRAL UPPER MICHIGAN

CITY           SKY/WX    TMP DP  RH WIND       PRES   REMARKS
MANISTIQUE     CLOUDY    15   6  66 W5        30.37F WCI   8
ESCANABA       CLOUDY    18   7  62 S7        30.38F WCI   8
MENOMINEE      CLOUDY    18   7  62 SW7       30.38F WCI   8
SAWYER-GWINN   CLOUDY    16   3  57 SW9       30.30F WCI   4
$$
MIZ001>003-009>011-084-310000-
WESTERN UPPER MICHIGAN

CITY           SKY/WX    TMP DP  RH WIND       PRES   REMARKS
IRON MOUNTAIN  CLOUDY    18   5  57 S6        30.30F WCI  10
HOUGHTON       CLOUDY    15   7  70 W7        30.27F WCI   5
COPPER HARBOR    N/A     15   6  67 W3        30.31F
IRONWOOD       PTCLDY    16   9  73 S7        30.24F WCI   6
$$

ABBREVIATIONS USED IN REMARKS
   TC - TEMPERATURE IN CELSIUS
  WCI - WIND CHILL INDEX
   HX - HEAT INDEX
  VSB - VISIBILITY



USA.gov is the U.S. government's official web portal to all federal, state and local government web resources and services.